This demonstration page uses our WeatherBlox Daily Observations layout. Learn more.

Left ArrowRight Arrow

41.12389, -100.76542

Hourly Observations for January 21, 2019

Temp ( °F °C ) Dew Point ( °F °C ) Humidity (%) Winds ( mph kmh ) Pressure ( in mb ) Visibility ( mi km ) Precip ( " mm )
12:01 am 00:01 Cloudy 24 -4.4 22 -5.6 91 91 SSE 12 19 30.12 1020 10 16 0.00 0.00
12:53 am 00:53 Cloudy 23 -5 20 -6.7 88 88 SSE 10 17 30.01 1016 9 14 0.00 0.00
1:15 am 01:15 Cloudy with Mist and Fog 22 -5.6 20 -6.7 92 92 SE 10 17 30.12 1020 6 10 0.00 0.00
1:45 am 01:45 Cloudy with Mist and Fog 21 -6.1 20 -6.7 96 96 SE 15 24 30.12 1020 2 3 0.00 0.00
1:53 am 01:53 Cloudy with Mist and Fog 21 -6.1 20 -6.7 96 96 SSE 12 19 29.97 1015 1 2 0.00 0.00
2:53 am 02:53 Cloudy with Mist and Fog 21 -6.1 19 -7.2 92 92 SSE 12 19 29.95 1014 1 2 0.00 0.00
3:00 am 03:00 Cloudy with Mist and Fog 21 -6.1 19 -7.2 92 92 SSE 12 19 30.09 1019 2 2 0.00 0.00
3:53 am 03:53 Cloudy with Mist and Fog 20 -6.7 19 -7.2 96 96 SSE 15 24 29.91 1013 2 3 0.00 0.00
4:00 am 04:00 Cloudy with Mist and Fog 20 -6.7 18 -7.8 92 92 SSE 13 20 30.03 1017 3 5 0.00 0.00
4:53 am 04:53 Cloudy with Mist and Fog 20 -6.7 18 -7.8 92 92 S 14 22 29.89 1012 5 8 0.00 0.00
5:53 am 05:53 Cloudy with Mist and Fog 20 -6.7 17 -8.3 89 89 S 14 22 29.88 1012 6 10 0.00 0.00
6:53 am 06:53 Cloudy with Mist and Fog 20 -6.7 17 -8.3 89 89 S 13 20 29.89 1012 5 8 0.00 0.00
7:53 am 07:53 Cloudy with Mist and Fog 20 -6.7 16 -8.9 85 85 S 13 20 29.87 1012 3 5 0.00 0.00
8:32 am 08:32 Cloudy with Mist and Fog 21 -6.1 17 -8.3 85 85 S 12 19 29.97 1015 2 3 0.00 0.00
8:53 am 08:53 Cloudy with Mist and Fog 21 -6.1 17 -8.3 85 85 S 9 15 29.88 1012 2 3 0.00 0.00
9:09 am 09:09 Cloudy with Haze 22 -5.6 17 -8.3 82 82 S 8 13 29.94 1014 3 5 0.00 0.00
9:53 am 09:53 Cloudy with Haze 22 -5.6 17 -8.3 82 82 S 9 15 29.85 1011 4 6 0.00 0.00
10:53 am 10:53 Cloudy with Haze 23 -5 18 -7.8 81 81 S 10 17 29.83 1010 4 6 0.00 0.00
11:53 am 11:53 Cloudy with Haze 24 -4.4 19 -7.2 81 81 SSE 10 17 29.78 1008 6 10 0.00 0.00
12:53 pm 12:53 Cloudy with Mist and Fog 24 -4.4 20 -6.7 84 84 S 8 13 29.76 1008 5 8 0.00 0.00
1:07 pm 13:07 Cloudy with Mist and Fog 24 -4.4 20 -6.7 84 84 SSW 9 15 29.80 1009 5 8 0.00 0.00
1:53 pm 13:53 Cloudy with Mist and Fog 24 -4.4 20 -6.7 84 84 SSE 10 17 29.70 1006 4 6 0.00 0.00
2:30 pm 14:30 Cloudy with Mist and Fog 24 -4.4 20 -6.7 84 84 SE 10 17 29.71 1006 3 4 0.00 0.00
2:53 pm 14:53 Cloudy with Mist and Fog 24 -4.4 20 -6.7 84 84 SE 10 17 29.66 1004 2 3 0.00 0.00
3:38 pm 15:38 Cloudy with Mist and Fog 24 -4.4 20 -6.7 84 84 SSE 7 11 29.71 1006 1 2 0.00 0.00
3:53 pm 15:53 Cloudy with Mist and Fog 24 -4.4 21 -6.1 88 88 S 5 7 29.67 1005 2 2 0.00 0.00
4:01 pm 16:01 Cloudy with Mist and Fog 25 -3.9 21 -6.1 85 85 SSE 5 7 29.74 1007 1 2 0.00 0.00
4:53 pm 16:53 Cloudy with Mist and Fog 25 -3.9 21 -6.1 85 85 SSE 6 9 29.69 1005 2 2 0.00 0.00
5:22 pm 17:22 Cloudy with Haze 26 -3.3 21 -6.1 81 81 SE 5 7 29.71 1006 2 3 0.00 0.00
5:43 pm 17:43 Cloudy with Mist and Fog 26 -3.3 22 -5.6 84 84 ESE 5 7 29.71 1006 2 3 0.00 0.00
6:51 pm 18:51 Cloudy with Mist and Fog 27 -3 21 -6 80 80 SE 8 13 29.74 1007 3 4 0.00 0.00
6:53 pm 18:53 Cloudy with Mist and Fog 26 -3.3 22 -5.6 84 84 ESE 8 13 29.72 1007 3 4 0.00 0.00
7:21 pm 19:21 Cloudy with Mist and Fog 26 -3.3 22 -5.6 84 84 ESE 6 9 29.80 1009 3 5 0.00 0.00
7:53 pm 19:53 Cloudy with Mist and Fog 26 -3.3 22 -5.6 84 84 E 6 9 29.74 1007 4 6 0.00 0.00
8:53 pm 20:53 Cloudy with Haze 26 -3.3 21 -6.1 81 81 E 7 11 29.73 1007 5 8 0.00 0.00
9:18 pm 21:18 Cloudy 25 -3.9 21 -6.1 85 85 ENE 6 9 29.80 1009 8 13 0.00 0.00
9:53 pm 21:53 Cloudy 26 -3.3 22 -5.6 84 84 NE 3 6 29.76 1008 10 16 0.00 0.00
10:35 pm 22:35 Cloudy 24 -4.4 21 -6.1 88 88 N 5 7 29.83 1010 10 16 0.00 0.00
10:53 pm 22:53 Cloudy 24 -4.4 21 -6.1 88 88 NNW 8 13 29.78 1009 10 16 0.00 0.00
11:11 pm 23:11 Cloudy 24 -4.4 21 -6.1 88 88 N 5 7 29.85 1011 10 16 0.00 0.00
11:20 pm 23:20 Cloudy 24 -4.4 21 -6.1 88 88 N 9 15 29.85 1011 10 16 0.00 0.00
11:53 pm 23:53 Cloudy 24 -4.4 21 -6.1 88 88 N 10 17 29.81 1009 7 11 0.00 0.00

Powered by AerisWeather